Theta_e
344 355 363 364 363 362 361 361 360 360 359 357 353 351 352 353 355 354 354 351 350 349 349 349 352 354 355 355 356 355 355 355 356 356 356 356 357 356 355 358 355 349 356
348 357 363 365 364 362 361 361 360 359 359 357 354 351 350 352 354 354 352 350 349 349 348 348 350 350 353 354 355 355 355 355 355 355 354 354 355 356 355 357 357 353 355
351 357 358 365 364 364 361 360 360 358 357 356 354 351 350 352 354 353 351 350 348 347 348 348 348 350 351 353 353 356 355 354 354 353 353 347 349 355 355 357 357 357 355
352 357 356 365 364 363 362 362 359 357 355 354 354 352 350 351 354 352 351 349 348 347 347 347 347 349 351 352 356 354 353 353 352 351 346 346 346 353 352 354 354 354 354
352 355 359 364 363 362 362 361 359 357 355 352 351 354 351 352 354 352 350 348 347 346 346 346 348 349 350 353 354 352 351 351 349 345 344 345 345 348 352 352 351 352 355
351 354 361 363 362 362 361 359 358 356 355 352 349 350 352 353 352 352 349 347 346 344 343 344 347 348 348 348 352 350 349 348 345 340 342 346 346 352 351 351 352 352 352
349 354 358 363 362 360 359 358 357 357 354 351 348 347 351 353 352 351 348 346 345 343 341 341 344 346 346 344 346 348 347 345 337 338 341 343 345 351 352 351 350 350 350
351 354 356 361 361 360 359 358 357 355 353 350 347 347 349 352 351 350 348 345 345 342 340 339 340 344 343 349 350 346 342 339 334 334 337 343 348 350 351 351 350 349 349
352 352 353 354 356 358 358 357 357 354 351 349 346 348 353 353 351 350 347 345 343 341 340 338 337 341 341 346 344 342 340 338 328 330 337 339 348 348 349 348 347 347 347
349 350 350 351 351 351 351 356 355 354 351 348 350 353 353 352 350 349 346 343 342 340 338 337 336 338 339 340 341 339 337 335 327 328 332 338 342 343 345 345 345 345 345
346 346 348 347 348 348 348 350 353 353 351 350 352 352 348 341 343 341 344 342 340 338 336 334 335 337 336 339 340 336 333 326 326 326 330 339 338 339 339 339 339 339 340
339 343 345 345 346 346 347 345 343 345 341 340 344 341 340 338 340 340 341 341 339 336 334 333 335 336 331 322 329 331 324 322 323 325 329 338 336 337 337 335 335 335 335
335 340 342 343 345 344 344 343 340 339 336 337 341 339 336 338 339 334 332 328 327 330 324 327 326 324 319 321 321 323 323 322 321 324 332 337 335 335 335 334 333 333 333
337 340 342 343 344 343 342 341 338 335 333 336 339 337 334 333 333 330 326 323 322 319 321 320 322 322 318 320 321 320 321 320 319 322 331 336 334 333 333 333 332 331 331
334 338 341 342 341 340 341 340 335 331 334 337 336 337 333 330 329 329 326 323 320 314 313 312 314 314 313 315 319 319 318 317 318 320 323 335 334 332 332 332 331 330 330
336 331 336 341 341 340 338 331 330 334 336 338 337 334 330 327 325 326 326 320 312 307 309 312 310 308 308 314 315 318 317 317 315 316 318 325 333 332 330 330 329 329 328
333 334 336 338 341 339 336 335 336 337 338 337 339 336 327 323 321 319 318 307 306 307 309 307 305 306 307 308 307 312 315 314 314 313 313 314 318 331 330 327 327 327 327
334 333 337 340 338 335 331 339 339 338 337 336 338 330 325 321 318 314 310 307 306 306 306 306 306 305 305 304 303 307 312 312 311 311 312 312 313 315 323 328 325 325 325
335 335 335 336 332 335 334 338 337 336 336 335 336 324 323 319 317 313 310 307 306 307 306 307 305 306 303 303 304 303 303 306 309 312 309 310 311 311 311 325 324 325 323
333 334 334 330 328 332 335 337 336 335 334 337 330 323 320 316 313 310 308 306 307 307 306 306 305 305 304 303 307 305 303 303 304 305 305 308 308 306 307 310 309 315 321
333 330 332 330 331 329 330 333 332 331 332 331 324 322 318 312 309 308 306 307 308 307 307 306 305 304 303 302 302 301 302 302 302 303 304 304 306 306 305 307 306 307 311
328 330 332 330 330 329 327 326 331 331 329 329 322 319 316 310 308 308 307 307 308 307 307 307 307 304 304 302 301 299 297 300 301 302 302 305 304 305 305 306 306 305 305
323 327 327 326 327 328 326 327 329 326 326 322 316 315 313 308 310 308 308 308 308 308 308 309 309 308 304 304 305 303 298 297 298 301 300 301 302 302 302 303 302 304 304
319 324 325 324 325 325 326 328 328 325 322 319 315 313 312 309 308 307 308 309 310 310 310 311 311 310 308 305 305 307 305 304 298 297 301 302 301 303 302 301 300 301 302
319 322 324 323 324 324 322 320 326 321 317 315 312 311 310 310 311 310 309 308 308 308 308 308 308 308 308 308 307 306 304 304 301 297 295 300 300 300 301 301 299 299 299
325 327 326 324 320 320 321 321 320 318 317 315 314 312 312 311 310 311 311 310 310 309 308 308 307 306 306 306 307 307 305 303 300 298 297 297 297 299 299 300 300 300 300
Wind_Speed
10 13 20 18 20 18 17 17 17 18 18 18 17 16 15 15 16 17 19 18 18 17 17 16 17 18 18 20 19 21 21 19 21 21 21 19 20 22 22 21 20 18 25
14 15 20 19 20 19 17 19 19 19 18 17 17 16 15 15 15 16 18 18 18 18 17 17 17 17 17 19 19 21 22 22 20 19 17 16 19 21 23 21 21 20 26
17 15 16 20 20 20 19 19 19 19 17 17 17 16 15 15 17 19 19 18 18 18 17 17 17 16 17 17 16 21 23 23 22 21 18 9 13 23 24 22 23 24 25
18 14 15 21 20 20 19 19 19 19 18 16 15 16 15 15 17 19 19 18 18 17 17 17 17 16 17 18 18 21 24 24 24 20 10 8 13 22 24 24 25 26 26
17 16 15 21 20 20 19 19 19 19 18 16 15 16 15 15 17 18 18 18 18 17 17 16 16 16 16 18 21 23 24 24 22 15 11 9 10 20 24 25 24 25 25
17 15 19 21 20 20 20 20 20 20 19 17 15 14 14 14 17 19 19 18 17 16 16 15 15 16 16 17 17 23 24 22 17 11 10 12 11 22 24 25 24 24 25
16 16 17 21 21 20 20 20 20 20 18 17 15 14 12 13 18 20 19 18 17 16 16 15 14 15 14 14 14 23 24 22 12 11 10 9 13 24 24 25 25 24 25
16 16 16 20 21 20 21 20 21 20 18 16 15 14 13 16 17 19 19 18 17 16 16 15 13 14 14 18 17 22 22 18 11 10 10 10 20 24 26 26 26 26 26
16 14 13 14 16 19 19 20 20 20 18 16 15 14 14 16 18 19 20 18 17 16 15 15 13 12 14 19 23 24 23 20 9 6 10 8 23 24 26 25 25 25 26
16 15 12 11 11 11 11 19 19 18 17 16 14 13 17 15 19 20 18 17 16 15 15 14 13 11 11 15 22 23 23 20 10 9 9 10 21 22 22 23 24 24 24
11 14 13 10 9 9 9 13 17 18 16 15 13 16 14 7 10 12 16 16 16 15 14 13 13 11 8 13 20 22 18 7 8 5 7 19 21 22 23 23 23 23 23
5 14 15 15 12 10 9 9 6 9 6 5 8 9 7 8 9 10 13 16 15 14 13 14 12 10 7 5 9 14 7 7 5 4 7 19 21 22 22 23 23 23 23
3 7 16 16 15 14 11 8 5 4 5 4 8 6 7 8 8 5 5 4 4 8 2 5 3 1 2 6 6 9 10 7 3 4 10 18 21 22 22 22 22 23 24
5 14 8 13 16 14 11 9 8 7 5 4 7 7 8 7 8 6 5 5 4 3 4 3 2 2 1 10 11 10 11 6 3 3 8 17 19 20 21 21 22 22 22
11 6 2 1 3 8 12 9 9 9 8 7 6 7 8 9 8 7 6 5 4 4 4 4 3 3 6 10 10 11 10 8 7 3 3 15 17 19 19 20 20 21 20
8 6 5 7 4 3 7 9 10 9 10 7 5 5 11 9 8 8 6 5 5 4 4 4 4 5 5 11 11 10 9 8 7 6 4 5 15 16 18 18 18 19 19
11 15 10 8 9 10 10 7 10 10 9 6 6 5 9 8 8 8 6 5 5 5 5 4 4 5 6 7 8 8 7 7 7 6 5 5 6 11 13 15 15 16 17
8 13 15 19 9 5 5 7 9 9 9 7 5 4 9 9 9 8 7 5 5 4 5 4 4 4 5 6 5 6 6 6 7 7 5 5 4 4 7 11 13 14 14
13 16 16 11 10 8 8 7 9 11 8 6 6 4 8 8 7 9 7 5 6 5 5 5 2 5 4 4 5 5 5 5 6 5 6 6 6 4 3 8 9 9 11
12 13 11 9 7 4 4 7 5 7 5 4 4 3 7 6 7 7 5 6 6 5 5 4 5 3 3 4 5 5 4 4 4 5 6 6 6 6 4 4 3 3 9
9 7 3 8 9 6 3 2 4 6 6 3 6 7 6 7 7 7 5 6 5 6 5 6 4 5 2 3 4 3 3 1 6 4 3 4 6 6 6 5 3 1 3
6 8 9 8 8 7 7 5 4 5 3 1 4 6 6 7 7 8 7 6 6 5 5 4 5 3 3 1 4 3 1 4 4 2 3 5 6 4 5 6 6 5 4
2 8 7 10 10 8 8 4 5 4 4 3 4 3 2 7 6 7 7 6 6 5 4 3 4 6 4 3 4 5 2 2 0 2 2 3 6 4 4 5 6 6 6
10 3 8 12 7 8 7 4 6 4 6 2 3 5 6 7 7 7 7 6 6 5 7 6 4 4 3 4 2 2 2 3 3 2 2 3 4 6 6 4 6 6 6
9 5 8 8 10 13 16 11 4 6 7 5 6 10 8 6 8 8 7 7 6 4 5 10 9 7 3 3 2 2 3 2 3 3 3 3 3 1 3 4 4 5 5
7 10 9 10 8 8 8 12 18 12 6 6 4 6 4 5 5 7 9 8 7 6 6 8 8 6 5 4 4 3 1 1 1 3 1 2 2 2 1 3 4 4 5
Wind_Direction
161 161 156 156 144 144 142 140 132 125 124 119 114 110 104 94 88 97 92 88 84 81 78 78 66 64 68 65 68 69 65 67 65 66 62 63 65 67 66 59 59 56 53
143 154 155 153 145 146 144 139 130 123 122 123 117 113 110 100 94 99 91 89 85 81 79 77 74 76 67 65 64 72 71 69 68 66 62 58 68 70 65 60 60 61 57
144 152 155 151 147 145 142 140 132 129 125 122 121 117 113 107 104 101 97 92 88 85 81 79 77 71 70 62 67 71 72 65 61 58 55 61 68 72 68 63 59 61 60
147 153 156 152 149 146 141 137 136 132 130 129 128 125 121 116 111 105 100 95 91 87 83 79 76 71 64 62 65 74 72 66 61 54 51 45 68 69 69 67 63 60 58
147 152 157 152 150 147 143 140 140 137 135 133 133 132 128 128 121 111 105 98 94 89 86 83 80 75 68 65 78 75 71 66 59 52 50 50 63 74 73 69 63 59 58
148 152 155 152 153 149 146 147 145 143 138 137 137 138 137 134 128 118 109 105 98 94 91 87 84 80 68 60 73 81 76 68 55 48 53 58 77 76 78 73 69 64 61
150 150 150 152 151 154 153 149 149 144 140 140 139 141 140 141 130 121 115 111 105 99 94 90 86 83 72 62 74 85 81 71 55 48 50 65 70 72 72 72 73 72 68
143 150 151 154 155 157 155 154 150 143 142 142 141 142 140 133 127 123 119 112 107 103 99 94 88 88 80 63 104 80 77 70 57 53 40 56 69 67 67 67 68 66 67
138 144 148 150 155 158 156 154 150 143 143 143 143 143 140 135 129 126 118 115 112 110 105 100 96 96 90 76 78 84 79 70 59 55 60 57 63 65 65 69 69 69 68
146 145 143 146 147 149 155 153 147 142 144 144 143 142 132 127 130 124 118 118 117 114 111 108 107 104 86 76 88 83 78 67 49 42 56 65 69 69 67 65 63 64 64
147 143 136 139 137 137 142 152 145 144 143 144 138 129 122 114 116 115 123 120 120 118 117 118 118 114 93 74 92 88 81 68 62 48 71 77 79 78 75 72 70 68 66
172 158 152 152 147 146 148 141 134 145 134 126 135 131 131 116 122 120 121 123 123 123 127 131 137 133 99 72 98 92 86 70 59 60 79 84 84 83 82 80 77 75 74
24 231 162 155 154 156 150 150 146 143 139 138 155 146 134 122 121 120 115 110 113 121 111 112 122 124 63 112 108 104 98 83 64 66 88 89 88 86 83 81 79 76 74
154 205 232 160 157 165 150 156 155 152 153 153 170 147 135 131 133 136 134 138 136 151 142 146 227 239 50 117 116 110 104 93 72 64 95 94 93 90 87 83 80 77 75
198 183 165 352 266 154 150 160 164 160 159 165 160 168 150 144 150 147 152 144 166 145 167 200 174 131 86 109 116 114 109 101 86 67 59 100 98 96 93 91 87 86 81
177 135 153 220 225 83 174 165 163 162 161 148 164 159 159 153 152 154 157 155 164 161 184 134 109 107 106 113 117 121 117 111 100 85 65 68 98 98 96 94 93 91 87
182 154 171 239 189 174 216 165 151 161 152 150 170 157 161 144 143 140 142 152 148 157 141 110 104 95 88 93 108 119 124 121 117 108 99 79 64 71 95 99 98 94 92
152 174 171 210 181 194 197 166 144 149 143 152 148 162 153 128 138 132 136 144 146 140 125 126 116 89 93 100 117 127 132 124 136 137 120 103 87 64 54 92 95 97 95
169 174 180 167 151 176 182 161 141 138 138 143 140 151 130 126 135 135 141 148 140 130 129 134 84 108 102 106 118 111 125 142 145 140 138 133 130 118 105 102 98 95 99
176 176 171 159 124 74 170 145 125 126 128 125 118 114 128 124 129 128 128 135 132 126 127 115 120 78 135 142 114 107 127 138 139 151 155 142 152 143 135 108 86 92 104
125 111 121 135 118 99 45 83 132 144 135 136 134 151 136 125 128 126 123 124 127 128 146 134 110 120 80 117 97 38 4 124 144 171 150 151 152 163 163 153 149 91 110
147 148 149 116 140 112 117 21 331 130 99 122 106 113 126 124 137 136 139 140 137 121 128 136 123 101 78 78 126 101 100 334 342 181 162 172 182 164 171 170 167 159 138
197 154 132 119 116 117 83 62 18 32 89 85 81 109 106 115 117 121 130 137 132 122 133 119 110 117 118 360 87 136 116 192 236 352 208 181 173 178 197 185 165 169 161
326 134 113 108 108 116 114 152 141 267 144 100 97 83 58 53 74 75 77 95 111 111 115 110 102 101 112 128 80 55 89 137 121 13 331 264 186 184 192 193 155 160 164
299 143 98 113 112 106 108 89 114 112 66 103 95 93 67 57 71 74 80 82 83 97 119 119 98 81 70 90 91 63 80 67 84 125 247 299 348 232 206 164 152 153 160
87 113 115 116 107 135 114 102 99 94 107 103 116 105 122 106 71 70 81 70 62 64 77 89 92 122 99 72 58 9 72 118 173 124 131 289 245 318 184 146 161 173 177